Regional Weather Roundup
Issued by NWS Midland/Odessa, TX

Skip options and go directly to product.
Home | Oldest Version | Previous Version | Current Version | All | Graphics & Text | Save Text | Print | Product List | Glossary On

Skip product version selection by date and time.   
969
ASUS44 KMAF 232110
RWRMAF
MIDLAND AREA WEATHER ROUNDUP
NATIONAL WEATHER SERVICE MIDLAND TX
300 PM CST SUN NOV 23 2014

...IN SOUTHWEST TEXAS AND SOUTHEAST NEW MEXICO...

CITY           SKY/WX    TMP DP  RH WIND       PRES   REMARKS
ALPINE         SUNNY     66  25  21 W33G48    29.82S
ANDREWS        FAIR      69  23  17 NW25G31   29.65S
ARTESIA        NOT AVBL
BIG SPRING     MOSUNNY   74  28  18 W25G38    29.63F
CARLSBAD       SUNNY     70  20  15 W35G45    29.66F
DRYDEN           N/A     80  26  13 W28G38    29.64S
FORT STOCKTON  MOSUNNY   70  25  18 W17G41    29.70F
GUAD PASS      SUNNY     58  23  26 W45G61    29.76S
HOBBS          SUNNY     66  23  19 W33G44    29.68R
MARFA          SUNNY     63  27  25 W31G41    29.81R
MIDLAND AIRPK  SUNNY     71  25  17 W21G30    29.64F
MIDLAND INTL   SUNNY     72  24  16 W21G31    29.64S
ODESSA         SUNNY     72  21  14 W30G36    29.65F
PECOS          MOSUNNY   72  28  19 W33G41    29.70S
PRESIDIO       FAIR      75  31  19 W10G18    29.77F
SEMINOLE       PTSUNNY   66  25  20 NW32G41   29.67R
SNYDER         MOSUNNY   69  30  23 W23G36    29.58R
WINK           SUNNY     74  16  11 W33G43    29.65S
$$
...OTHER STATIONS IN TEXAS...

CITY           SKY/WX    TMP DP  RH WIND       PRES   REMARKS
ABILENE        PTSUNNY   72  35  25 NW23G29   29.53R
AMARILLO       LGT RAIN  37  34  89 NW23G33   29.73R WCI  26
AUSTIN         MOSUNNY   82  42  24 SW15G28   29.52F
BROWNSVILLE    SUNNY     84  55  36 S15       29.64F
CORPUS CHRISTI MOSUNNY   80  60  50 SW12      29.61F
DALLAS FTW     MOSUNNY   75  34  22 W24G33    29.39S
DEL RIO        SUNNY     82  39  21 NW18G25   29.60F
EL PASO        MOSUNNY   64  25  22 W38G51    29.81S
HOUSTON INT    SUNNY     79  51  37 SW14G23   29.53F
LUBBOCK        MOSUNNY   61  30  31 N26G36    29.63R
SAN ANGELO     MOSUNNY   77  26  15 W24G32    29.58S
SAN ANTONIO    MOSUNNY   80  44  27 SW16G26   29.57F
WACO           SUNNY     78  40  25 W17G29    29.45F
WICHITA FALLS  NOT AVBL
$$
...OTHER LOCATIONS IN NEW MEXICO...

CITY           SKY/WX    TMP DP  RH WIND       PRES   REMARKS
ALAMAGORDO     MOSUNNY   63  23  22 NW22G28   29.81R
ALBUQUERQUE    MOSUNNY   45  14  28 W35G46    29.87S WCI  35
CANNON AFB     LGT RAIN  41  31  65 N29G41    29.74R WCI  30
CLOVIS         PTSUNNY  N/A N/A N/A N31G40    29.76R
HOLLOMAN AFB   MOSUNNY   62  23  22 NW24G32   29.79F
ROSWELL        SUNNY     62  23  22 NW35G47   29.71R
RUIDOSO        MOSUNNY   45  18  33 NW24G39   29.82R WCI  36
SANTA FE       LGT RAIN  42  13  30 W17G29    29.76S WCI  34
TRUTH OR CONSE SUNNY     59  16  18 NW26G40   29.83S
TUCUMCARI      FLURRIES  35  33  92 CALM      29.80R
$$

USA.gov is the U.S. government's official web portal to all federal, state and local government web resources and services.